Snowfall_Accumulation
nan nan nan nan nan nan nan 0.0 0.0 0.0 0.0 0.0 0.0 0.0 0.0 nan 0.0 0.0 0.0 0.0 0.0 0.0 0.0 0.0 0.0 0.0 0.0 0.0 0.0 0.0 0.0 0.0 0.5 0.0 0.0 0.0 0.0 0.0 0.0 0.8 0.0 0.5 1.0 1.0
nan nan nan nan nan nan 0.0 0.0 0.0 0.0 0.0 0.5 0.6 0.0 0.0 0.0 0.0 0.0 0.0 0.0 0.0 0.0 0.0 0.0 0.0 0.0 0.0 0.0 0.0 0.0 0.0 0.1 0.3 0.1 0.0 0.0 0.0 0.0 0.0 0.0 0.2 0.0 8.0 1.0
nan nan nan nan nan nan 0.0 0.0 0.3 0.0 0.0 0.0 0.0 0.0 0.0 0.0 0.0 0.0 0.0 0.0 0.0 0.0 0.0 0.0 0.0 0.0 0.0 0.0 0.0 nan nan 0.0 0.0 0.3 0.0 0.0 0.0 0.0 0.0 0.0 1.7 0.3 0.3 0.0
nan nan nan nan nan nan 0.0 0.0 0.1 0.0 0.2 0.1 0.0 0.0 0.0 0.0 0.0 0.0 0.0 0.0 0.0 0.0 0.1 0.0 0.0 0.0 0.0 0.0 nan 0.0 0.0 0.0 0.0 0.0 0.0 0.0 0.0 0.0 0.0 0.0 0.0 0.6 0.0 0.0
nan nan nan nan nan nan 0.0 0.0 0.0 0.0 0.0 0.0 0.0 0.0 0.0 0.0 0.0 0.0 0.0 0.0 0.0 0.0 0.0 0.0 0.0 0.0 0.0 0.0 0.0 0.0 0.0 0.3 0.1 0.0 0.0 0.0 0.0 0.0 0.0 0.0 0.0 0.0 0.0 0.0
nan nan nan nan nan nan 0.0 0.0 0.0 0.0 nan 0.0 0.2 0.2 0.0 0.0 0.0 0.0 0.0 0.0 0.0 0.1 0.0 0.0 0.0 0.0 0.0 0.0 0.0 0.0 0.0 0.4 0.6 0.4 0.0 0.1 2.6 0.0 0.0 0.0 0.0 0.0 0.2 0.0
nan nan nan nan nan nan 0.0 0.0 0.0 0.1 0.6 0.3 0.1 0.0 0.0 0.0 0.0 0.0 0.0 0.0 0.0 0.0 0.0 0.0 0.0 0.0 0.0 0.0 0.0 0.0 0.1 0.1 0.5 3.4 1.4 6.1 0.0 0.0 0.0 0.0 0.0 0.0 0.0 0.0
nan nan nan nan nan nan 0.0 0.0 0.0 0.1 9.5 0.2 0.1 0.0 0.0 0.0 0.0 0.0 0.0 0.0 0.0 0.0 0.0 0.6 0.3 1.1 1.0 0.5 0.0 0.0 0.0 0.1 2.5 7.1 1.2 0.0 0.0 0.0 0.0 0.0 0.0 0.0 0.0 0.0
nan nan nan nan nan nan 0.0 0.0 0.0 0.0 1.9 0.4 0.0 0.0 0.0 0.2 0.1 0.2 0.0 0.0 0.0 0.0 0.6 1.2 1.2 2.4 0.1 0.2 0.0 0.0 0.0 0.1 1.5 2.9 4.3 7.9 0.0 0.0 0.0 0.0 0.5 0.0 0.0 0.0
nan nan nan nan nan nan 0.0 0.0 0.0 0.0 0.5 0.0 0.0 0.1 0.2 0.0 0.1 0.2 0.1 0.0 0.1 0.0 2.2 7.6 4.2 2.1 0.0 0.7 0.7 2.2 2.3 2.6 5.1 3.3 6.0 1.5 0.0 0.0 0.0 2.0 0.1 0.0 0.0 0.0
nan nan nan nan nan nan 0.0 0.0 0.0 0.0 0.0 0.0 0.0 0.0 0.0 0.0 0.0 0.7 0.0 0.5 0.5 0.9 2.3 3.7 1.9 6.2 1.0 0.4 0.0 0.1 0.6 3.0 7.5 3.2 5.7 6.3 0.0 0.0 0.6 0.3 0.0 0.0 0.0 0.0
nan nan nan nan nan nan nan 0.0 0.0 0.0 0.0 0.0 0.0 0.0 0.0 0.0 0.0 0.0 0.0 0.1 0.0 0.2 0.6 3.0 3.7 6.5 7.9 0.7 2.9 0.0 1.4 0.6 0.9 0.2 1.2 0.0 0.0 0.0 0.0 0.0 0.0 0.0 0.0 0.0
nan nan nan nan nan nan nan 0.0 0.0 0.0 0.6 0.0 0.0 0.0 0.0 0.0 0.0 0.0 0.2 0.3 0.0 0.0 0.0 0.4 1.6 3.7 0.6 5.8 0.9 0.4 0.0 0.0 0.5 0.2 0.0 0.0 0.0 0.0 0.0 0.0 0.0 0.0 0.0 0.0
nan nan nan nan nan nan nan 0.0 0.0 0.0 0.2 6.3 0.4 0.0 0.0 0.0 0.0 0.0 0.0 0.0 0.0 0.0 0.1 2.2 3.7 5.8 0.0 2.0 0.8 0.6 0.0 0.1 0.0 0.0 0.0 0.0 0.0 0.0 0.0 0.0 0.0 0.0 0.0 0.0
nan nan nan nan nan nan nan 0.0 0.0 0.0 0.0 2.3 0.6 0.0 0.0 0.0 0.0 0.0 0.0 0.0 0.0 0.2 1.2 7.1 4.0 0.4 1.1 0.8 0.6 0.8 0.0 0.0 0.9 0.6 0.0 0.0 0.0 0.0 0.0 0.0 0.0 0.0 0.0 0.0
nan nan nan nan nan nan 0.0 0.0 0.0 0.0 0.0 0.9 3.0 0.0 0.0 0.0 0.0 0.0 0.0 0.0 0.0 0.0 0.2 3.7 0.4 0.0 0.5 7.9 1.1 0.0 0.0 0.0 0.0 0.0 0.0 0.0 0.0 0.0 0.0 0.0 0.0 0.0 0.0 0.0
nan nan nan nan nan 0.0 0.0 0.0 0.0 nan 0.0 1.1 3.3 1.0 0.2 0.0 0.0 0.0 0.0 0.0 0.0 0.0 0.4 1.0 0.5 0.4 0.0 3.8 1.7 0.0 0.0 0.0 0.0 0.0 0.0 0.0 0.0 0.0 0.0 0.0 0.0 0.0 0.0 0.0
nan nan nan nan nan nan 0.1 0.0 nan nan 0.0 0.5 2.9 2.6 1.4 0.0 0.7 2.0 0.0 0.4 0.5 0.1 0.0 1.2 1.0 0.4 1.4 1.8 0.0 0.0 0.0 0.0 0.0 0.0 0.0 0.0 0.0 0.0 0.0 0.0 0.0 0.0 0.0 0.0
nan nan nan 0.0 0.0 0.3 0.0 nan nan 0.0 0.1 1.0 7.8 4.0 6.6 0.0 0.2 1.1 0.7 0.1 3.7 0.1 2.9 1.3 0.5 1.4 1.9 0.0 0.0 0.0 0.0 0.0 0.0 0.0 0.0 0.0 0.0 0.0 0.0 0.0 0.0 0.0 0.0 0.0
nan 0.0 0.0 1.2 0.7 nan nan 0.0 0.7 0.8 0.7 0.6 3.5 0.4 2.5 0.0 1.2 2.1 1.5 1.7 3.8 4.3 3.1 0.0 3.4 0.7 0.0 0.0 0.0 0.0 0.0 0.0 0.0 0.0 0.0 0.0 0.0 0.0 0.0 0.0 0.0 0.0 0.0 0.0
0.1 1.0 0.9 0.0 nan 0.0 0.3 1.3 1.3 0.6 3.0 0.4 0.8 0.7 0.7 0.3 2.8 3.5 1.6 5.7 5.1 6.6 1.5 4.0 2.9 1.4 0.0 0.0 0.0 0.0 0.0 0.0 0.0 0.0 0.0 0.0 0.0 0.0 0.0 0.0 0.1 0.1 0.1 0.1
0.0 0.2 0.0 0.0 0.0 1.0 3.3 6.5 4.6 2.4 1.8 1.0 2.6 1.2 0.3 1.5 0.0 1.2 4.4 5.0 4.5 5.7 0.7 9.4 4.2 0.4 0.0 0.0 0.0 0.0 0.0 0.0 0.0 0.0 0.0 0.0 0.0 0.0 0.0 0.1 0.1 0.2 0.3 2.9
0.0 0.6 1.3 0.5 6.6 28.7 11.3 8.8 6.6 11.0 2.8 4.4 4.4 10.6 1.5 1.6 0.6 5.2 3.8 10.0 9.1 1.2 9.4 1.6 0.8 0.0 0.0 0.0 0.0 0.0 0.0 0.0 0.0 0.0 0.0 0.0 0.0 0.0 0.1 0.6 0.3 1.6 0.4 0.2
1.1 5.5 29.6 11.7 13.0 5.3 4.1 3.0 4.6 4.1 3.8 3.3 2.3 4.4 3.7 5.4 6.4 5.5 10.0 3.5 2.1 7.9 6.6 4.2 0.4 0.0 0.0 0.0 0.0 0.0 0.0 1.0 0.4 0.0 0.1 0.3 0.5 0.5 1.6 2.8 3.7 2.8 0.5 0.6
1.5 3.0 20.1 7.8 3.9 3.8 4.5 4.3 3.5 1.7 1.5 2.1 3.6 3.6 0.9 6.9 10.4 5.5 4.3 10.2 9.4 4.4 4.9 2.2 0.8 0.0 0.0 0.0 0.0 0.0 0.2 1.8 1.0 0.0 0.4 2.4 1.7 0.8 0.4 0.8 0.5 0.4 2.9 3.0
1.4 2.4 6.2 4.8 9.0 14.3 14.7 9.5 8.2 1.0 1.7 2.3 2.5 4.1 7.3 7.0 6.2 6.3 7.1 4.9 4.3 5.4 2.8 1.5 0.3 0.0 0.1 0.1 0.1 0.1 0.1 0.1 0.1 0.1 0.1 0.6 1.6 1.8 0.2 0.5 1.1 4.1 4.3 7.1
3.2 10.3 4.1 6.7 7.3 9.2 8.3 5.6 2.1 0.1 4.6 14.0 4.6 7.7 4.6 2.2 5.5 3.6 1.8 9.7 4.5 2.4 0.9 0.5 0.1 0.1 0.1 0.1 0.1 2.1 0.3 0.1 0.2 0.1 0.2 0.2 0.4 0.9 0.8 1.3 0.1 0.2 0.6 5.5
Water_Equivalent
nan nan nan nan nan nan nan 0.00 0.00 0.00 0.00 0.00 0.00 0.00 0.00 nan 0.00 0.00 0.00 0.00 0.00 0.00 0.00 0.00 0.00 0.00 0.00 0.00 0.00 0.00 0.00 0.00 0.10 0.00 0.00 0.00 0.00 0.00 0.00 0.17 0.00 0.09 0.19 0.18
nan nan nan nan nan nan 0.00 0.00 0.00 0.00 0.00 0.12 0.13 0.00 0.00 0.00 0.00 0.00 0.00 0.00 0.00 0.00 0.00 0.00 0.00 0.00 0.00 0.00 0.00 0.00 0.00 0.03 0.05 0.02 0.01 0.00 0.00 0.00 0.00 0.00 0.04 0.01 1.35 0.19
nan nan nan nan nan nan 0.00 0.00 0.08 0.01 0.00 0.00 0.00 0.00 0.00 0.00 0.00 0.00 0.00 0.00 0.00 0.00 0.00 0.00 0.00 0.00 0.00 0.00 0.00 nan nan 0.00 0.00 0.06 0.00 0.00 0.00 0.00 0.00 0.00 0.34 0.06 0.06 0.00
nan nan nan nan nan nan 0.00 0.00 0.02 0.00 0.06 0.04 0.00 0.00 0.00 0.00 0.00 0.00 0.00 0.00 0.00 0.00 0.02 0.00 0.00 0.00 0.00 0.00 nan 0.00 0.00 0.00 0.00 0.00 0.00 0.00 0.00 0.00 0.00 0.00 0.00 0.11 0.00 0.00
nan nan nan nan nan nan 0.00 0.00 0.00 0.00 0.00 0.00 0.00 0.00 0.00 0.00 0.00 0.00 0.00 0.00 0.00 0.00 0.00 0.00 0.00 0.00 0.00 0.00 0.00 0.00 0.00 0.06 0.01 0.01 0.00 0.00 0.00 0.00 0.00 0.00 0.00 0.00 0.00 0.00
nan nan nan nan nan nan 0.00 0.00 0.00 0.00 nan 0.01 0.06 0.05 0.00 0.00 0.00 0.00 0.00 0.00 0.00 0.02 0.00 0.00 0.00 0.00 0.00 0.00 0.00 0.00 0.00 0.07 0.12 0.09 0.00 0.02 0.48 0.00 0.00 0.00 0.00 0.00 0.05 0.00
nan nan nan nan nan nan 0.00 0.00 0.00 0.03 0.13 0.07 0.02 0.00 0.00 0.00 0.00 0.00 0.00 0.00 0.01 0.00 0.00 0.00 0.00 0.00 0.00 0.00 0.00 0.00 0.02 0.03 0.09 0.69 0.28 1.08 0.01 0.00 0.00 0.00 0.00 0.00 0.00 0.00
nan nan nan nan nan nan 0.00 0.00 0.00 0.03 2.19 0.05 0.02 0.00 0.00 0.00 0.00 0.00 0.00 0.00 0.00 0.00 0.00 0.14 0.06 0.23 0.19 0.09 0.00 0.00 0.00 0.03 0.51 1.41 0.22 0.00 0.00 0.00 0.00 0.00 0.00 0.00 0.00 0.00
nan nan nan nan nan nan 0.00 0.00 0.00 0.00 0.50 0.11 0.00 0.01 0.00 0.04 0.03 0.06 0.00 0.00 0.00 0.00 0.14 0.25 0.25 0.48 0.02 0.04 0.00 0.00 0.00 0.02 0.32 0.57 0.79 1.30 0.00 0.00 0.00 0.00 0.10 0.00 0.00 0.00
nan nan nan nan nan nan 0.00 0.00 0.00 0.00 0.12 0.00 0.00 0.03 0.04 0.00 0.02 0.05 0.02 0.00 0.04 0.00 0.54 1.77 0.89 0.41 0.00 0.14 0.13 0.41 0.46 0.52 0.96 0.67 1.15 0.30 0.00 0.00 0.00 0.37 0.03 0.00 0.00 0.00
nan nan nan nan nan nan 0.00 0.00 0.00 0.00 0.00 0.00 0.00 0.00 0.00 0.00 0.01 0.16 0.00 0.12 0.12 0.23 0.60 0.83 0.41 1.39 0.21 0.09 0.00 0.02 0.12 0.59 1.47 0.66 1.12 1.14 0.00 0.00 0.13 0.07 0.00 0.00 0.00 0.00
nan nan nan nan nan nan nan 0.00 0.00 0.00 0.01 0.00 0.00 0.00 0.00 0.00 0.00 0.00 0.00 0.01 0.00 0.04 0.15 0.78 0.82 1.54 1.91 0.15 0.55 0.00 0.28 0.12 0.18 0.04 0.24 0.00 0.00 0.00 0.00 0.00 0.00 0.00 0.00 0.00
nan nan nan nan nan nan nan 0.00 0.00 0.00 0.16 0.01 0.00 0.00 0.00 0.00 0.00 0.00 0.06 0.09 0.00 0.01 0.00 0.10 0.43 0.90 0.15 1.44 0.23 0.10 0.00 0.00 0.11 0.05 0.00 0.00 0.00 0.00 0.00 0.00 0.00 0.00 0.00 0.00
nan nan nan nan nan nan nan 0.00 0.00 0.00 0.04 1.67 0.11 0.00 0.00 0.00 0.00 0.00 0.00 0.00 0.00 0.00 0.03 0.59 0.97 1.50 0.00 0.51 0.21 0.16 0.01 0.01 0.01 0.01 0.00 0.00 0.00 0.00 0.00 0.00 0.00 0.00 0.00 0.00
nan nan nan nan nan nan nan 0.00 0.00 0.00 0.01 0.60 0.15 0.00 0.00 0.00 0.00 0.00 0.00 0.00 0.00 0.05 0.31 1.90 1.06 0.10 0.29 0.20 0.16 0.22 0.00 0.00 0.22 0.17 0.00 0.00 0.00 0.00 0.00 0.00 0.00 0.00 0.00 0.00
nan nan nan nan nan nan 0.00 0.00 0.00 0.00 0.00 0.24 0.78 0.00 0.00 0.00 0.00 0.00 0.00 0.00 0.00 0.00 0.05 0.97 0.10 0.00 0.12 2.11 0.29 0.00 0.00 0.00 0.00 0.00 0.00 0.00 0.00 0.00 0.00 0.00 0.00 0.00 0.00 0.00
nan nan nan nan nan 0.00 0.00 0.00 0.00 nan 0.00 0.29 0.92 0.25 0.06 0.00 0.00 0.00 0.00 0.00 0.00 0.00 0.09 0.27 0.12 0.10 0.01 1.00 0.45 0.00 0.00 0.00 0.00 0.00 0.00 0.00 0.00 0.00 0.00 0.00 0.00 0.00 0.00 0.00
nan nan nan nan nan nan 0.03 0.00 nan nan 0.00 0.12 0.79 0.67 0.36 0.00 0.17 0.52 0.00 0.11 0.12 0.02 0.00 0.31 0.27 0.11 0.36 0.47 0.00 0.00 0.00 0.00 0.00 0.00 0.00 0.00 0.00 0.00 0.00 0.00 0.00 0.00 0.00 0.00
nan nan nan 0.00 0.00 0.09 0.00 nan nan 0.00 0.02 0.27 2.11 1.05 1.74 0.00 0.06 0.28 0.17 0.02 0.96 0.02 0.77 0.34 0.13 0.36 0.51 0.00 0.00 0.00 0.00 0.00 0.00 0.00 0.00 0.00 0.00 0.00 0.00 0.00 0.00 0.00 0.00 0.00
nan 0.00 0.01 0.32 0.19 nan nan 0.01 0.17 0.21 0.19 0.16 0.93 0.12 0.65 0.01 0.32 0.55 0.39 0.44 0.95 0.90 0.81 0.01 0.88 0.18 0.00 0.00 0.00 0.00 0.00 0.00 0.00 0.00 0.01 0.00 0.00 0.00 0.00 0.00 0.00 0.00 0.00 0.00
0.02 0.25 0.24 0.00 nan 0.00 0.08 0.34 0.32 0.16 0.76 0.10 0.19 0.17 0.17 0.08 0.75 0.93 0.41 1.26 1.12 1.27 0.30 0.85 0.57 0.27 0.00 0.00 0.00 0.00 0.00 0.00 0.00 0.00 0.00 0.00 0.00 0.00 0.00 0.00 0.01 0.02 0.02 0.02
0.00 0.05 0.00 0.01 0.00 0.26 0.95 1.48 1.03 0.52 0.36 0.24 0.65 0.31 0.07 0.38 0.00 0.32 0.95 0.99 0.89 1.04 0.13 1.83 0.74 0.08 0.00 0.00 0.00 0.00 0.00 0.00 0.00 0.00 0.00 0.00 0.00 0.00 0.01 0.01 0.01 0.04 0.05 0.51
0.00 0.14 0.34 0.14 1.57 4.81 2.19 1.52 1.31 2.26 0.71 1.17 1.15 2.74 0.39 0.41 0.17 1.16 0.82 1.82 1.58 0.25 1.75 0.30 0.16 0.00 0.00 0.00 0.00 0.00 0.00 0.00 0.01 0.00 0.00 0.00 0.00 0.00 0.03 0.10 0.06 0.30 0.08 0.04
0.26 1.18 4.92 2.19 2.42 0.97 0.76 0.58 0.92 0.97 1.00 0.87 0.61 1.02 0.78 1.11 1.26 1.07 1.86 0.63 0.41 1.36 1.10 0.74 0.07 0.00 0.00 0.00 0.00 0.00 0.00 0.17 0.07 0.01 0.01 0.05 0.09 0.08 0.28 0.50 0.65 0.45 0.09 0.10
0.31 0.62 3.19 1.40 0.74 0.76 0.99 1.09 0.89 0.45 0.39 0.54 0.79 0.72 0.18 1.31 1.91 1.01 0.77 1.72 1.56 0.75 0.84 0.39 0.16 0.01 0.00 0.00 0.00 0.00 0.04 0.31 0.17 0.01 0.07 0.42 0.30 0.15 0.08 0.16 0.10 0.08 0.48 0.49
0.29 0.48 1.15 0.92 1.76 2.83 3.05 2.19 1.94 0.26 0.41 0.48 0.51 0.74 1.28 1.22 1.13 1.11 1.21 0.78 0.67 0.92 0.54 0.30 0.07 0.01 0.01 0.02 0.02 0.02 0.02 0.02 0.02 0.02 0.02 0.10 0.27 0.32 0.04 0.10 0.21 0.75 0.76 1.20
0.63 1.89 0.82 1.34 1.44 1.84 1.67 1.23 0.47 0.02 0.95 2.66 0.88 1.30 0.73 0.39 0.90 0.56 0.31 1.60 0.83 0.48 0.18 0.09 0.01 0.02 0.01 0.02 0.02 0.37 0.05 0.02 0.03 0.02 0.03 0.03 0.07 0.16 0.15 0.23 0.03 0.04 0.11 0.97
SL_Ratio
nan nan nan nan nan nan nan nan nan nan nan 4.2 5.0 4.0 nan nan nan nan nan nan nan nan nan nan nan nan nan nan nan nan nan 5.0 5.0 nan nan nan nan nan nan 4.9 5.0 5.0 5.1 5.7
nan nan nan nan nan nan nan nan nan nan nan 4.0 4.5 nan nan nan nan nan nan nan nan nan nan nan nan nan nan nan nan nan nan 4.8 5.1 5.1 5.0 3.3 nan nan nan nan 4.9 5.2 5.9 5.5
nan nan nan nan nan nan nan nan 3.8 4.1 nan nan nan nan nan nan nan nan nan nan nan nan nan nan nan nan nan nan nan nan nan nan nan 5.0 nan nan nan nan nan nan 5.0 4.8 4.8 4.0
nan nan nan nan nan nan nan nan 3.8 nan 3.8 3.8 nan nan nan nan nan nan nan nan nan nan 5.1 nan nan nan nan nan nan nan nan 5.0 nan nan nan nan nan nan nan nan nan 5.2 6.7 nan
nan nan nan nan nan nan nan nan 4.0 nan nan nan nan nan nan nan nan nan nan nan nan nan 6.7 nan nan nan nan nan nan nan nan 4.8 4.9 4.6 nan nan 5.0 nan nan nan nan nan nan nan
nan nan nan nan nan nan nan nan nan nan nan 4.4 3.8 4.3 nan nan nan nan nan nan 4.0 4.8 nan nan nan nan nan nan nan nan 5.0 4.9 5.0 5.0 nan 5.1 5.4 5.5 nan nan nan nan 4.9 nan
nan nan nan nan nan nan nan nan nan 3.9 4.3 4.5 4.0 nan nan nan nan nan nan nan 4.5 nan nan nan nan nan nan nan nan nan 4.8 5.0 4.9 4.9 5.0 5.6 5.0 nan nan nan nan nan nan nan
nan nan nan nan nan nan nan nan nan 3.9 4.4 4.1 3.8 nan nan nan nan nan nan nan nan nan nan 4.2 4.9 5.0 5.1 5.2 nan nan nan 4.1 4.9 5.1 5.2 5.0 nan nan nan 5.0 nan nan nan nan
nan nan nan nan nan nan nan nan nan nan 3.8 3.8 nan 3.9 nan 4.2 4.6 4.1 nan nan nan nan 4.2 4.6 5.0 5.1 5.3 5.0 6.7 nan 0.0 4.7 4.8 5.0 5.4 6.1 3.3 nan nan nan 4.9 nan nan nan
nan nan nan nan nan nan nan nan nan nan 3.8 nan nan 3.8 3.9 nan 4.2 3.9 4.6 nan 4.2 nan 4.0 4.3 4.7 5.0 5.0 5.0 5.3 5.3 5.0 5.0 5.3 5.0 5.2 5.1 nan nan nan 5.3 5.1 nan nan nan
nan nan nan nan nan nan nan nan nan nan 4.3 nan nan nan nan nan 3.8 4.2 nan 4.0 4.1 3.8 3.8 4.4 4.6 4.5 4.9 5.0 5.7 5.3 5.1 5.1 5.1 4.9 5.1 5.5 nan nan 4.8 4.4 nan nan nan nan
nan nan nan nan nan nan nan nan nan nan 3.8 4.0 nan nan nan nan nan nan nan 3.9 nan 3.9 3.9 3.9 4.5 4.2 4.2 4.7 5.2 nan 5.0 4.6 5.0 5.0 5.1 nan nan nan nan nan nan nan nan nan
nan nan nan nan nan nan nan nan nan nan 3.8 4.0 nan nan nan nan nan nan 3.8 3.8 nan 3.6 nan 4.0 3.8 4.1 4.1 4.1 4.0 4.2 nan nan 4.2 4.0 0.0 nan nan nan nan nan nan nan nan nan
nan nan nan nan nan nan nan nan nan nan 3.8 3.7 3.8 nan nan nan nan nan nan nan nan nan 3.8 3.8 3.8 3.9 nan 3.9 3.8 3.8 3.9 4.0 3.8 3.7 nan nan nan nan nan nan nan nan nan nan
nan nan nan nan nan nan nan nan nan nan 3.7 3.8 3.8 nan nan nan nan nan nan nan nan 3.8 3.8 3.7 3.8 3.9 3.8 3.9 3.9 3.9 nan 3.6 3.9 3.9 nan nan nan nan nan nan nan nan nan nan
nan nan nan nan nan nan nan nan nan nan nan 3.8 3.8 3.8 nan nan nan nan nan nan nan nan 3.8 3.8 3.8 nan 3.9 3.8 3.8 nan nan nan nan nan nan nan nan nan nan nan nan nan nan nan
nan nan nan nan nan nan nan nan nan nan nan 3.8 3.6 3.9 3.8 nan nan nan nan nan nan nan 3.8 3.8 3.8 3.8 3.9 3.8 3.8 nan nan nan nan nan nan nan nan nan nan nan nan nan nan nan
nan nan nan nan nan nan 3.8 nan nan nan nan 3.8 3.7 3.8 4.0 nan 3.9 3.8 nan 3.9 3.8 3.8 nan 3.8 3.8 3.9 3.8 3.8 nan nan nan nan nan nan nan nan nan nan nan nan nan nan nan nan
nan nan nan nan nan 3.8 3.6 nan nan nan 3.8 3.8 3.7 3.8 3.8 nan 3.8 3.8 4.0 3.9 3.8 3.9 3.8 3.8 3.8 3.8 3.8 5.0 nan nan nan nan nan nan nan nan nan nan nan nan nan nan nan nan
nan nan 4.0 3.8 3.8 nan nan 3.6 3.8 3.8 3.9 3.8 3.8 3.9 3.8 4.0 3.8 3.8 3.8 3.8 4.0 4.8 3.8 4.3 3.8 4.0 nan nan nan nan nan nan nan 0.0 4.1 nan 0.0 nan nan nan nan nan nan nan
3.9 3.8 3.8 nan nan nan 3.8 3.9 3.9 3.7 3.9 3.9 4.0 3.8 3.8 3.8 3.8 3.8 3.8 4.5 4.6 5.2 5.0 4.8 5.0 5.2 nan nan nan nan nan nan nan nan nan nan nan nan nan 6.7 5.0 5.2 5.1 5.1
nan 3.8 nan 3.8 nan 3.8 3.4 4.4 4.5 4.6 4.9 4.3 4.0 3.8 3.8 3.8 nan 3.9 4.6 5.0 5.0 5.5 4.9 5.2 5.6 5.1 nan nan nan nan nan nan nan nan nan nan nan nan 5.0 5.2 5.1 5.3 5.4 5.8
nan 3.8 3.8 3.3 4.2 6.0 5.1 5.8 5.1 4.9 3.9 3.8 3.8 3.9 3.8 3.8 3.8 4.5 4.6 5.5 5.7 4.9 5.4 5.4 5.3 nan nan nan nan nan nan 4.6 4.8 nan nan nan 5.0 6.7 5.3 5.5 5.3 5.3 5.6 5.5
4.2 4.7 6.0 5.3 5.4 5.4 5.4 5.1 4.9 4.3 3.8 3.8 3.8 4.4 4.8 4.9 5.1 5.2 5.4 5.5 5.2 5.8 6.0 5.7 5.0 nan nan nan nan nan nan 5.7 5.7 5.0 5.2 5.3 5.5 5.6 5.8 5.6 5.7 6.2 5.8 5.8
4.9 4.9 6.3 5.5 5.2 5.0 4.5 3.9 3.9 3.8 3.8 3.8 4.6 5.0 4.9 5.3 5.4 5.4 5.6 6.0 6.0 5.9 5.9 5.7 4.9 4.7 4.3 5.3 nan nan 5.4 5.9 6.0 5.0 5.4 5.7 5.7 5.5 5.4 5.4 5.5 5.6 6.0 6.1
5.0 5.1 5.4 5.2 5.1 5.1 4.8 4.3 4.2 3.9 4.1 4.8 4.9 5.5 5.7 5.7 5.5 5.7 5.9 6.2 6.5 5.8 5.2 5.0 4.9 4.8 4.8 4.9 5.1 4.9 5.1 5.3 5.2 5.1 5.3 5.6 5.9 5.6 5.0 5.3 5.4 5.5 5.6 5.9
5.1 5.5 5.0 5.0 5.1 5.0 5.0 4.6 4.4 3.9 4.9 5.3 5.3 5.9 6.2 5.6 6.1 6.3 5.6 6.1 5.4 5.1 5.1 5.1 4.8 4.9 4.9 4.9 5.1 5.8 5.6 5.0 5.3 5.2 5.4 5.2 5.5 5.6 5.6 5.7 5.2 5.5 5.6 5.7